Cazaux, France

6:10 AM CET on February 10, 2016 (GMT +0100)
Cazaux Air Base

Weather History for LFBC - November, 2012

Change the Weather History Date:

Friday, November 23, 2012

  Actual Average Record
Temperature  
Mean Temperature 50 °F -  
Max Temperature 60 °F 50 °F 66 °F (2006)
Min Temperature 41 °F 37 °F 24 °F (1998)
Degree Days  
Heating Degree Days 14    
Moisture  
Dew Point 46 °F    
Average Humidity 87    
Maximum Humidity 100    
Minimum Humidity 59    
Precipitation  
Precipitation 0.00 in - - ()
Sea Level Pressure  
Sea Level Pressure 30.04 in    
Wind  
Wind Speed 4 mph ()    
Max Wind Speed 8 mph    
Max Gust Speed -    
Visibility 6.2 miles    
Events      
Averages and records for this station are not official NWS values.
T = Trace of Precipitation, MM = Missing Value Source: Averaged Metar Reports

Daily Weather History Graph

Daily Weather History Graph

Search for Another Location

Airport or City:

Trip Planner

Search our weather history database for the weather conditions in past years. The results will help you decide how hot, cold, wet, or windy it might be!

Date:

Astronomy

Nov. 23, 2012 Rise Set
Actual Time 8:11 AM CET 5:30 PM CET
Civil Twilight 7:39 AM CET 6:02 PM CET
Nautical Twilight 7:03 AM CET 6:38 PM CET
Astronomical Twilight 6:28 AM CET 7:12 PM CET
Moon 2:46 PM CET (11/23) 3:06 AM CET (11/23)
Length of Visible Light 10h 22m
Length of Day
9h 18m
Waxing Gibbous, 77% of the Moon is Illuminated
Nov 23
Waxing Gibbous
Nov 28
Full
Dec 6
Last Quarter
Dec 13
New
Dec 20
First Quarter

Hourly Weather History & Observations

Time (CET) Temp. Windchill Dew Point Humidity Pressure Visibility Wind Dir Wind Speed Gust Speed Precip Events Conditions
12:00 AM 46.4 °F 45.2 °F 44.6 °F 93% 30.06 in 6.2 mi SSE 3.5 mph - N/A   Unknown
12:30 AM 44.6 °F 41.4 °F 44.6 °F 100% 30.06 in 6.2 mi SSE 5.8 mph - N/A   Unknown
1:00 AM 44.6 °F 42.2 °F 42.8 °F 93% 30.06 in 6.2 mi SSE 4.6 mph - N/A   Unknown
1:30 AM 44.6 °F - 44.6 °F 100% 30.06 in 6.2 mi SE 2.3 mph - N/A   Unknown
2:00 AM 44.6 °F 43.1 °F 42.8 °F 93% 30.06 in 6.2 mi SE 3.5 mph - N/A   Unknown
2:30 AM 44.6 °F 43.1 °F 44.6 °F 100% 30.06 in 6.2 mi ESE 3.5 mph - N/A   Unknown
3:00 AM 44.6 °F - 44.6 °F 100% 30.06 in 6.2 mi SSE 2.3 mph - N/A   Unknown
3:30 AM 44.6 °F 43.1 °F 44.6 °F 100% 30.04 in 6.2 mi SE 3.5 mph - N/A   Unknown
4:00 AM 44.6 °F - 44.6 °F 100% 30.04 in 6.2 mi East 2.3 mph - N/A   Unknown
4:30 AM 42.8 °F 39.3 °F 42.8 °F 100% 30.04 in 5.0 mi East 5.8 mph - N/A   Unknown
5:00 AM 42.8 °F 39.3 °F 42.8 °F 100% 30.04 in 5.0 mi East 5.8 mph - N/A   Unknown
5:30 AM 42.8 °F 40.1 °F 42.8 °F 100% 30.04 in 6.2 mi East 4.6 mph - N/A   Unknown
6:00 AM 41.0 °F 37.1 °F 41.0 °F 100% 30.04 in 6.2 mi SE 5.8 mph - N/A   Unknown
6:30 AM 42.8 °F 41.1 °F 42.8 °F 100% 30.04 in 6.2 mi ESE 3.5 mph - N/A   Unknown
7:00 AM 42.8 °F - 42.8 °F 100% 30.04 in 6.2 mi Calm Calm - N/A   Unknown
7:30 AM 42.8 °F 41.1 °F 42.8 °F 100% 30.04 in 6.2 mi SSE 3.5 mph - N/A   Unknown
8:00 AM 44.6 °F - 42.8 °F 93% 30.04 in 6.2 mi South 2.3 mph - N/A   Unknown
8:30 AM 44.6 °F 42.2 °F 44.6 °F 100% 30.04 in 6.2 mi SSE 4.6 mph - N/A   Unknown
9:00 AM 44.6 °F 42.2 °F 44.6 °F 100% 30.06 in 6.2 mi SSE 4.6 mph - N/A   Unknown
9:30 AM 46.4 °F 45.2 °F 44.6 °F 93% 30.06 in 6.2 mi ESE 3.5 mph - N/A   Unknown
10:00 AM 46.4 °F 45.2 °F 46.4 °F 100% 30.06 in 6.2 mi SE 3.5 mph - N/A   Unknown
10:30 AM 48.2 °F - 46.4 °F 93% 30.06 in 6.2 mi SSE 3.5 mph - N/A   Unknown
11:00 AM 50.0 °F - 48.2 °F 94% 30.06 in 6.2 mi South 3.5 mph - N/A   Unknown
11:30 AM 51.8 °F - 48.2 °F 88% 30.06 in 6.2 mi South 6.9 mph - N/A   Unknown
12:00 PM 53.6 °F - 46.4 °F 77% 30.06 in 6.2 mi South 5.8 mph - N/A   Unknown
12:30 PM 55.4 °F - 46.4 °F 72% 30.06 in 6.2 mi South 6.9 mph - N/A   Unknown
1:00 PM 57.2 °F - 46.4 °F 67% 30.06 in 6.2 mi South 5.8 mph - N/A   Unknown
1:30 PM 60.8 °F - 46.4 °F 59% 30.04 in 6.2 mi South 6.9 mph - N/A   Unknown
2:00 PM 60.8 °F - 46.4 °F 59% 30.04 in 6.2 mi South 4.6 mph - N/A   Unknown
2:30 PM 60.8 °F - 46.4 °F 59% 30.04 in 6.2 mi South 6.9 mph - N/A   Unknown
3:00 PM 60.8 °F - 48.2 °F 63% 30.04 in 6.2 mi South 6.9 mph - N/A   Unknown
3:30 PM 60.8 °F - 48.2 °F 63% 30.01 in 6.2 mi South 5.8 mph - N/A   Unknown
4:00 PM 60.8 °F - 48.2 °F 63% 30.01 in 6.2 mi SSE 4.6 mph - N/A   Unknown
4:30 PM 59.0 °F - 48.2 °F 67% 30.01 in 6.2 mi ESE 6.9 mph - N/A   Unknown
5:00 PM 57.2 °F - 48.2 °F 72% 30.04 in 6.2 mi ESE 5.8 mph - N/A   Unknown
5:30 PM 55.4 °F - 48.2 °F 77% 30.01 in 6.2 mi ESE 6.9 mph - N/A   Unknown
6:00 PM 55.4 °F - 48.2 °F 77% 30.04 in 6.2 mi SE 8.1 mph - N/A   Unknown
6:30 PM 55.4 °F - 48.2 °F 77% 30.04 in 6.2 mi ESE 6.9 mph - N/A   Unknown
7:00 PM 53.6 °F - 48.2 °F 82% 30.04 in 6.2 mi ESE 5.8 mph - N/A   Unknown
7:30 PM 51.8 °F - 48.2 °F 88% 30.04 in 6.2 mi Variable 2.3 mph - N/A   Unknown
8:00 PM 51.8 °F - 48.2 °F 88% 30.01 in 6.2 mi South 3.5 mph - N/A   Unknown
8:30 PM 51.8 °F - 48.2 °F 88% 30.01 in 6.2 mi Variable 2.3 mph - N/A   Unknown
9:00 PM 51.8 °F - 48.2 °F 88% 30.01 in 6.2 mi SSW 3.5 mph - N/A   Unknown
9:30 PM 51.8 °F - 48.2 °F 88% 30.01 in 6.2 mi Variable 2.3 mph - N/A   Unknown
10:00 PM 50.0 °F - 46.4 °F 87% 30.01 in 6.2 mi Calm Calm - N/A   Unknown
10:30 PM 50.0 °F - 46.4 °F 87% 30.01 in 6.2 mi SE 5.8 mph - N/A   Unknown
11:00 PM 48.2 °F - 46.4 °F 93% 30.01 in 6.2 mi SE 3.5 mph - N/A   Unknown
11:30 PM 48.2 °F - 46.4 °F 93% 30.01 in 6.2 mi SE 3.5 mph - N/A   Unknown